EN

Hourly Weather Aba

Today, 2 December, Wednesday

Time Temperature Precipitation Wind Pressure Humidity
00:00 +27°C° 0 mm 1 mps 752 mmHg 87%
01:00 +27°C° 0 mm 1 mps 752 mmHg 89%
02:00 +27°C° 0 mm 1 mps 752 mmHg 90%
03:00 +26°C° 0 mm 1 mps 752 mmHg 91%
04:00 +26°C° 0 mm 1 mps 752 mmHg 91%
05:00 +26°C° 0 mm 1 mps 752 mmHg 91%
06:00 +26°C° 0 mm 1 mps 752 mmHg 91%
07:00 +28°C° 0.1 mm 1 mps 753 mmHg 83%
08:00 +30°C° 0.1 mm 2 mps 753 mmHg 74%
09:00 +32°C° 0.1 mm 2 mps 754 mmHg 65%
10:00 +34°C° 0 mm 2 mps 753 mmHg 60%
11:00 +35°C° 0 mm 2 mps 752 mmHg 55%
12:00 +36°C° 0 mm 2 mps 751 mmHg 49%
13:00 +35°C° 0 mm 1 mps 751 mmHg 49%
14:00 +35°C° 0 mm 1 mps 750 mmHg 48%
15:00 +35°C° 0 mm 1 mps 750 mmHg 48%
16:00 +34°C° 0 mm 2 mps 750 mmHg 56%
17:00 +31°C° 0 mm 2 mps 750 mmHg 65%
18:00 +29°C° 0 mm 3 mps 751 mmHg 73%
19:00 +28°C° 0 mm 3 mps 751 mmHg 77%
20:00 +28°C° 0 mm 3 mps 752 mmHg 80%
21:00 +27°C° 0 mm 2 mps 753 mmHg 84%
22:00 +27°C° 0 mm 2 mps 753 mmHg 86%
23:00 +27°C° 0 mm 2 mps 752 mmHg 88%

Tomorrow, 3 December, Thursday

Time Temperature Precipitation Wind Pressure Humidity
00:00 +26°C° 0 mm 1 mps 752 mmHg 90%
01:00 +26°C° 0 mm 1 mps 752 mmHg 91%
02:00 +26°C° 0 mm 1 mps 752 mmHg 92%
03:00 +26°C° 0 mm 1 mps 752 mmHg 94%
04:00 +26°C° 0 mm 1 mps 752 mmHg 93%
05:00 +26°C° 0 mm 1 mps 753 mmHg 93%
06:00 +26°C° 0 mm 1 mps 753 mmHg 93%
07:00 +28°C° 0.1 mm 1 mps 754 mmHg 83%
08:00 +30°C° 0.1 mm 1 mps 754 mmHg 74%
09:00 +32°C° 0.1 mm 1 mps 754 mmHg 65%
10:00 +33°C° 0.1 mm 1 mps 754 mmHg 58%
11:00 +35°C° 0.1 mm 1 mps 753 mmHg 52%
12:00 +36°C° 0.1 mm 1 mps 752 mmHg 45%
13:00 +35°C° 0 mm 1 mps 752 mmHg 46%
14:00 +36°C° 0 mm 2 mps 751 mmHg 47%
15:00 +35°C° 0 mm 2 mps 750 mmHg 49%
16:00 +32°C° 0 mm 2 mps 751 mmHg 58%
17:00 +30°C° 0 mm 3 mps 751 mmHg 67%
18:00 +28°C° 0 mm 3 mps 752 mmHg 77%
19:00 +28°C° 0 mm 3 mps 752 mmHg 79%
20:00 +28°C° 0 mm 2 mps 753 mmHg 82%
21:00 +27°C° 0 mm 2 mps 753 mmHg 84%
22:00 +27°C° 0 mm 2 mps 753 mmHg 86%
23:00 +26°C° 0 mm 2 mps 753 mmHg 88%

Day after tomorrow, 4 December, Friday

Time Temperature Precipitation Wind Pressure Humidity
00:00 +26°C° 0 mm 2 mps 753 mmHg 90%
01:00 +26°C° 0 mm 1 mps 753 mmHg 91%
02:00 +26°C° 0 mm 1 mps 752 mmHg 92%
03:00 +25°C° 0 mm 1 mps 752 mmHg 94%
04:00 +26°C° 0 mm 1 mps 753 mmHg 93%
05:00 +24°C° 0 mm 0 mps 753 mmHg 93%
06:00 +24°C° 0 mm 0 mps 754 mmHg 92%
07:00 +28°C° 0.1 mm 1 mps 754 mmHg 83%
08:00 +30°C° 0.1 mm 1 mps 754 mmHg 74%
09:00 +31°C° 0.1 mm 1 mps 754 mmHg 65%
10:00 +33°C° 0 mm 1 mps 754 mmHg 60%
11:00 +34°C° 0 mm 1 mps 753 mmHg 56%
12:00 +35°C° 0 mm 1 mps 753 mmHg 51%
13:00 +34°C° 0 mm 1 mps 752 mmHg 51%
14:00 +34°C° 0 mm 1 mps 752 mmHg 51%
15:00 +34°C° 0 mm 1 mps 751 mmHg 51%
16:00 +32°C° 0 mm 2 mps 752 mmHg 59%
17:00 +30°C° 0 mm 2 mps 752 mmHg 68%
18:00 +29°C° 0 mm 3 mps 752 mmHg 76%
19:00 +28°C° 0 mm 3 mps 753 mmHg 79%
20:00 +28°C° 0 mm 3 mps 753 mmHg 82%
21:00 +27°C° 0 mm 2 mps 753 mmHg 85%
22:00 +27°C° 0 mm 2 mps 753 mmHg 87%
23:00 +27°C° 0 mm 2 mps 753 mmHg 89%

5 December, Saturday

Time Temperature Precipitation Wind Pressure Humidity
00:00 +27°C° 0 mm 2 mps 752 mmHg 90%
01:00 +26°C° 0 mm 1 mps 752 mmHg 92%
02:00 +26°C° 0 mm 1 mps 752 mmHg 93%
03:00 +26°C° 0 mm 1 mps 752 mmHg 94%
04:00 +26°C° 0.1 mm 1 mps 752 mmHg 93%
05:00 +26°C° 0.1 mm 1 mps 753 mmHg 92%
06:00 +27°C° 0.1 mm 1 mps 753 mmHg 91%
07:00 +28°C° 0.1 mm 1 mps 753 mmHg 83%
08:00 +30°C° 0.1 mm 1 mps 754 mmHg 75%
09:00 +31°C° 0.1 mm 2 mps 754 mmHg 66%
10:00 +32°C° 0.2 mm 2 mps 754 mmHg 62%
11:00 +34°C° 0.2 mm 2 mps 753 mmHg 58%
12:00 +34°C° 0.2 mm 1 mps 753 mmHg 54%
13:00 +34°C° 0.5 mm 2 mps 752 mmHg 56%
14:00 +34°C° 0.5 mm 2 mps 752 mmHg 58%
15:00 +32°C° 0.5 mm 2 mps 751 mmHg 59%
16:00 +31°C° 0.2 mm 2 mps 751 mmHg 67%
17:00 +29°C° 0.2 mm 2 mps 751 mmHg 74%
18:00 +28°C° 0.2 mm 3 mps 752 mmHg 82%
19:00 +27°C° 0 mm 2 mps 752 mmHg 84%
20:00 +27°C° 0 mm 2 mps 753 mmHg 86%
21:00 +27°C° 0 mm 2 mps 753 mmHg 88%
22:00 +27°C° 0.1 mm 2 mps 753 mmHg 89%
23:00 +26°C° 0.1 mm 2 mps 753 mmHg 90%

6 December, Sunday

Time Temperature Precipitation Wind Pressure Humidity
00:00 +26°C° 0.1 mm 2 mps 753 mmHg 91%
01:00 +26°C° 0 mm 1 mps 752 mmHg 92%
02:00 +26°C° 0 mm 1 mps 752 mmHg 93%
03:00 +25°C° 0 mm 1 mps 752 mmHg 93%
04:00 +26°C° 0 mm 1 mps 752 mmHg 93%
05:00 +26°C° 0 mm 1 mps 753 mmHg 93%
06:00 +26°C° 0 mm 1 mps 753 mmHg 93%
07:00 +27°C° 0.1 mm 1 mps 753 mmHg 84%
08:00 +29°C° 0.1 mm 1 mps 754 mmHg 76%
09:00 +31°C° 0.1 mm 2 mps 754 mmHg 68%
10:00 +32°C° 0.1 mm 2 mps 753 mmHg 64%
11:00 +32°C° 0.1 mm 2 mps 753 mmHg 61%
12:00 +34°C° 0.1 mm 2 mps 752 mmHg 57%
13:00 +34°C° 0.5 mm 2 mps 752 mmHg 58%
14:00 +32°C° 0.5 mm 2 mps 751 mmHg 60%
15:00 +32°C° 0.5 mm 2 mps 751 mmHg 62%
16:00 +31°C° 0.3 mm 2 mps 751 mmHg 68%
17:00 +29°C° 0.3 mm 2 mps 751 mmHg 75%
18:00 +28°C° 0.3 mm 2 mps 752 mmHg 81%
19:00 +27°C° 0.5 mm 2 mps 752 mmHg 83%
20:00 +27°C° 0.5 mm 2 mps 753 mmHg 84%
21:00 +27°C° 0.5 mm 2 mps 753 mmHg 86%
22:00 +26°C° 0 mm 2 mps 753 mmHg 86%
23:00 +26°C° 0 mm 2 mps 753 mmHg 87%

7 December, Monday

Time Temperature Precipitation Wind Pressure Humidity
00:00 +26°C° 0 mm 2 mps 753 mmHg 88%
01:00 +26°C° 0 mm 1 mps 753 mmHg 89%
02:00 +26°C° 0 mm 1 mps 753 mmHg 89%
03:00 +25°C° 0 mm 1 mps 752 mmHg 90%
04:00 +25°C° 0 mm 1 mps 753 mmHg 90%
05:00 +24°C° 0 mm 0 mps 753 mmHg 90%
06:00 +24°C° 0 mm 0 mps 753 mmHg 90%
07:00 +25°C° 0 mm 0 mps 754 mmHg 82%
08:00 +29°C° 0 mm 1 mps 754 mmHg 74%
09:00 +31°C° 0 mm 2 mps 754 mmHg 66%
10:00 +31°C° 0 mm 2 mps 754 mmHg 64%
11:00 +32°C° 0 mm 2 mps 753 mmHg 63%
12:00 +32°C° 0 mm 2 mps 753 mmHg 61%
13:00 +32°C° 0.2 mm 2 mps 752 mmHg 61%
14:00 +32°C° 0.2 mm 2 mps 752 mmHg 61%
15:00 +32°C° 0.2 mm 2 mps 751 mmHg 61%
16:00 +31°C° 0.4 mm 2 mps 751 mmHg 68%
17:00 +29°C° 0.4 mm 2 mps 752 mmHg 75%
18:00 +28°C° 0.4 mm 2 mps 752 mmHg 82%
19:00 +27°C° 0 mm 2 mps 753 mmHg 84%
20:00 +27°C° 0 mm 2 mps 753 mmHg 86%
21:00 +27°C° 0 mm 2 mps 754 mmHg 87%
22:00 +26°C° 0 mm 2 mps 754 mmHg 88%
23:00 +26°C° 0 mm 2 mps 754 mmHg 89%
Show more